DAL8990 KCYS-KDEN

Flight info

Callsign DAL8990
Flight time 0h 29m
Altitude 17000
Route CYS V89 GLL/N0373F160
Aircraft A319/M-FAA/L

Departure

Time 2026-05-05 22:28
Airport Cheyenne Regional Jerry Olson Field (KCYS)

Arrival

Time 2026-05-05 22:57
Airport Denver International Airport (KDEN)
Time Latitude Longitude Altitude Speed Heading
2026-05-05 22:16 41.15408 -104.81947 6165 ft 0 kts 225°
2026-05-05 22:20 41.15409 -104.81947 6165 ft 1 kts 225°
2026-05-05 22:20 41.15423 -104.81925 6173 ft 4 kts 246°
2026-05-05 22:20 41.15427 -104.81893 6173 ft 4 kts 290°
2026-05-05 22:21 41.15418 -104.81872 6170 ft 0 kts 315°
2026-05-05 22:24 41.15418 -104.81873 6165 ft 1 kts 315°
2026-05-05 22:24 41.15436 -104.81895 6167 ft 6 kts 315°
2026-05-05 22:24 41.15480 -104.81953 6166 ft 10 kts 316°
2026-05-05 22:25 41.15524 -104.82021 6166 ft 9 kts 284°
2026-05-05 22:25 41.15535 -104.82095 6169 ft 7 kts 300°
2026-05-05 22:25 41.15574 -104.82115 6168 ft 4 kts
2026-05-05 22:25 41.15575 -104.82115 6168 ft 0 kts
2026-05-05 22:26 41.15576 -104.82115 6168 ft 1 kts
2026-05-05 22:26 41.15611 -104.82112 6167 ft 8 kts
2026-05-05 22:26 41.15676 -104.82095 6167 ft 8 kts 45°
2026-05-05 22:27 41.15674 -104.82062 6168 ft 6 kts 100°
2026-05-05 22:27 41.15653 -104.81756 6171 ft 72 kts 96°
2026-05-05 22:27 41.15583 -104.80770 6155 ft 140 kts 95°
2026-05-05 22:27 41.15491 -104.79303 6457 ft 167 kts 94°
2026-05-05 22:28 41.15384 -104.77773 7315 ft 165 kts 93°
2026-05-05 22:28 41.15319 -104.76254 8001 ft 168 kts 82°
2026-05-05 22:28 41.15825 -104.74795 8375 ft 189 kts 44°
2026-05-05 22:28 41.17081 -104.74093 8690 ft 217 kts
2026-05-05 22:29 41.18577 -104.74820 9171 ft 248 kts 321°
2026-05-05 22:29 41.19529 -104.76813 9693 ft 277 kts 285°
2026-05-05 22:29 41.19474 -104.79435 10272 ft 300 kts 252°
2026-05-05 22:29 41.18320 -104.81845 10704 ft 324 kts 221°
2026-05-05 22:30 41.16309 -104.83144 11737 ft 321 kts 189°
2026-05-05 22:30 41.14153 -104.82893 13224 ft 310 kts 161°
2026-05-05 22:30 41.12275 -104.81425 14019 ft 325 kts 145°
2026-05-05 22:30 41.10385 -104.79593 14331 ft 347 kts 145°
2026-05-05 22:31 41.08377 -104.77717 14889 ft 357 kts 151°
2026-05-05 22:31 41.06079 -104.76428 15526 ft 361 kts 168°
2026-05-05 22:31 41.03582 -104.75967 16210 ft 365 kts 179°
2026-05-05 22:31 41.01039 -104.75708 16804 ft 369 kts 180°
2026-05-05 22:32 40.98474 -104.75448 16989 ft 370 kts 180°
2026-05-05 22:32 40.95842 -104.75187 17034 ft 385 kts 180°
2026-05-05 22:32 40.93152 -104.74917 17039 ft 389 kts 180°
2026-05-05 22:32 40.90480 -104.74639 17047 ft 390 kts 180°
2026-05-05 22:33 40.87773 -104.74353 17051 ft 390 kts 180°
2026-05-05 22:33 40.85066 -104.74066 17058 ft 390 kts 180°
2026-05-05 22:33 40.82351 -104.73779 17056 ft 390 kts 180°
2026-05-05 22:33 40.79656 -104.73498 17074 ft 388 kts 180°
2026-05-05 22:34 40.76961 -104.73217 17069 ft 388 kts 180°
2026-05-05 22:34 40.74276 -104.72942 17065 ft 387 kts 180°
2026-05-05 22:34 40.71585 -104.72668 17065 ft 387 kts 180°
2026-05-05 22:34 40.68898 -104.72394 17062 ft 388 kts 180°
2026-05-05 22:35 40.66211 -104.72117 17058 ft 388 kts 180°
2026-05-05 22:35 40.63519 -104.71838 17057 ft 388 kts 180°
2026-05-05 22:35 40.60828 -104.71559 17034 ft 387 kts 180°
2026-05-05 22:35 40.58143 -104.71286 17041 ft 387 kts 181°
2026-05-05 22:36 40.55461 -104.71014 17051 ft 387 kts 181°
2026-05-05 22:36 40.52779 -104.70741 17041 ft 387 kts 180°
2026-05-05 22:36 40.50144 -104.70471 17045 ft 387 kts 180°
2026-05-05 22:36 40.47465 -104.70199 17041 ft 386 kts 181°
2026-05-05 22:37 40.44785 -104.69930 17044 ft 386 kts 181°
2026-05-05 22:37 40.42103 -104.69661 17047 ft 386 kts 181°
2026-05-05 22:37 40.39419 -104.69387 17027 ft 386 kts 181°
2026-05-05 22:37 40.36742 -104.69112 17039 ft 386 kts 181°
2026-05-05 22:38 40.34068 -104.68838 17042 ft 385 kts 181°
2026-05-05 22:38 40.31425 -104.68564 17040 ft 385 kts 181°
2026-05-05 22:38 40.28750 -104.68288 17044 ft 385 kts 181°
2026-05-05 22:38 40.26076 -104.68015 17043 ft 385 kts 181°
2026-05-05 22:39 40.23407 -104.67744 17024 ft 381 kts 181°
2026-05-05 22:39 40.20801 -104.67474 17006 ft 372 kts 181°
2026-05-05 22:39 40.18223 -104.67210 16983 ft 370 kts 181°
2026-05-05 22:39 40.15661 -104.66952 16981 ft 369 kts 182°
2026-05-05 22:40 40.13098 -104.66697 16965 ft 369 kts 182°
2026-05-05 22:40 40.10539 -104.66442 16960 ft 369 kts 182°
2026-05-05 22:40 40.07974 -104.66183 16957 ft 369 kts 182°
2026-05-05 22:40 40.05410 -104.65925 16943 ft 369 kts 182°
2026-05-05 22:41 40.02848 -104.65666 16946 ft 369 kts 182°
2026-05-05 22:41 40.00288 -104.65409 16947 ft 369 kts 182°
2026-05-05 22:41 39.97727 -104.65152 16947 ft 369 kts 182°
2026-05-05 22:41 39.95161 -104.64894 16941 ft 369 kts 181°
2026-05-05 22:42 39.92605 -104.64637 16943 ft 369 kts 182°
2026-05-05 22:42 39.90048 -104.64380 16945 ft 368 kts 181°
2026-05-05 22:42 39.87488 -104.64122 16943 ft 369 kts 181°
2026-05-05 22:42 39.84928 -104.63863 16941 ft 369 kts 181°
2026-05-05 22:43 39.82370 -104.63605 16942 ft 369 kts 181°
2026-05-05 22:43 39.79811 -104.63348 16941 ft 369 kts 182°
2026-05-05 22:43 39.77253 -104.63092 16942 ft 369 kts 181°
2026-05-05 22:43 39.74696 -104.62835 16826 ft 369 kts 181°
2026-05-05 22:44 39.72174 -104.62583 16480 ft 367 kts 181°
2026-05-05 22:44 39.69606 -104.62326 16086 ft 364 kts 181°
2026-05-05 22:44 39.67120 -104.62078 15740 ft 362 kts 181°
2026-05-05 22:44 39.64613 -104.61831 15390 ft 360 kts 181°
2026-05-05 22:45 39.62121 -104.61587 15040 ft 358 kts 181°
2026-05-05 22:45 39.59641 -104.61340 14704 ft 356 kts 181°
2026-05-05 22:45 39.57181 -104.61092 14368 ft 354 kts 181°
2026-05-05 22:45 39.54699 -104.60840 14042 ft 352 kts 180°
2026-05-05 22:46 39.52311 -104.60598 13707 ft 345 kts 179°
2026-05-05 22:46 39.49940 -104.60362 13337 ft 336 kts 179°
2026-05-05 22:46 39.47639 -104.60133 12963 ft 328 kts 178°
2026-05-05 22:46 39.45400 -104.59946 12706 ft 316 kts 182°
2026-05-05 22:47 39.43303 -104.60410 12524 ft 300 kts 201°
2026-05-05 22:47 39.41397 -104.61363 12346 ft 289 kts 202°
2026-05-05 22:47 39.40203 -104.62142 12214 ft 281 kts 218°
2026-05-05 22:47 39.39077 -104.64106 12036 ft 273 kts 250°
2026-05-05 22:48 39.39022 -104.66506 11851 ft 271 kts 284°
2026-05-05 22:48 39.40021 -104.68505 11632 ft 274 kts 316°
2026-05-05 22:48 39.41677 -104.69669 11406 ft 274 kts 346°
2026-05-05 22:48 39.43586 -104.69640 11187 ft 269 kts
2026-05-05 22:49 39.45410 -104.69212 10977 ft 265 kts
2026-05-05 22:49 39.47218 -104.69210 10792 ft 262 kts 359°
2026-05-05 22:49 39.49042 -104.69197 10592 ft 263 kts
2026-05-05 22:49 39.50865 -104.69138 10401 ft 261 kts
2026-05-05 22:50 39.52673 -104.69105 10213 ft 260 kts
2026-05-05 22:50 39.54482 -104.69086 10018 ft 259 kts
2026-05-05 22:50 39.56283 -104.69066 9817 ft 259 kts
2026-05-05 22:50 39.58077 -104.69045 9608 ft 257 kts
2026-05-05 22:51 39.59863 -104.69025 9367 ft 255 kts
2026-05-05 22:51 39.61641 -104.69005 9162 ft 253 kts
2026-05-05 22:51 39.63379 -104.68985 8944 ft 247 kts
2026-05-05 22:51 39.65080 -104.68966 8733 ft 242 kts
2026-05-05 22:52 39.66744 -104.68947 8519 ft 236 kts
2026-05-05 22:52 39.68363 -104.68928 8326 ft 229 kts
2026-05-05 22:52 39.69918 -104.68911 8139 ft 218 kts
2026-05-05 22:52 39.71397 -104.68895 7927 ft 207 kts
2026-05-05 22:53 39.72810 -104.68878 7700 ft 200 kts
2026-05-05 22:53 39.74173 -104.68861 7425 ft 196 kts
2026-05-05 22:53 39.75487 -104.68848 7154 ft 182 kts
2026-05-05 22:53 39.76657 -104.68837 7012 ft 155 kts
2026-05-05 22:54 39.77699 -104.68826 7008 ft 141 kts
2026-05-05 22:54 39.78649 -104.68813 6939 ft 134 kts
2026-05-05 22:54 39.79572 -104.68801 6815 ft 132 kts
2026-05-05 22:54 39.80476 -104.68790 6675 ft 128 kts
2026-05-05 22:55 39.81369 -104.68779 6508 ft 129 kts
2026-05-05 22:55 39.82257 -104.68769 6309 ft 126 kts
2026-05-05 22:55 39.83133 -104.68758 6095 ft 126 kts
2026-05-05 22:55 39.83996 -104.68748 5913 ft 124 kts
2026-05-05 22:56 39.84840 -104.68739 5729 ft 119 kts
2026-05-05 22:56 39.85689 -104.68726 5563 ft 123 kts
2026-05-05 22:56 39.86531 -104.68723 5389 ft 120 kts
2026-05-05 22:56 39.87248 -104.68708 5358 ft 81 kts
2026-05-05 22:57 39.87505 -104.68633 5363 ft 13 kts 90°
2026-05-05 22:57 39.87496 -104.68508 5363 ft 23 kts 92°
2026-05-05 22:57 39.87409 -104.68388 5364 ft 18 kts 173°
2026-05-05 22:57 39.87301 -104.68381 5364 ft 13 kts 180°
2026-05-05 22:58 39.87219 -104.68383 5364 ft 13 kts 181°
2026-05-05 22:58 39.87091 -104.68383 5362 ft 19 kts 180°
2026-05-05 22:58 39.86973 -104.68385 5362 ft 15 kts 181°
2026-05-05 22:58 39.86888 -104.68389 5362 ft 10 kts 182°
2026-05-05 22:59 39.85805 -104.67951 5387 ft 0 kts